Location: Angwan Shehu
(11.2514°N, 7.4613°E)
Time: 07:29:15
(UTC+00:00)

SR - Pass Details

Date: 22 April 2021
Orbit: 573 x 882 km, 66.7° (Epoch: 12 May)

Event Time Altitude Azimuth Distance (km) Brightness Sun altitude
Rises 15:23:51 0° 3° (N) 3,322 ? 32.6°
Reaches altitude 10° 15:27:04 10° 20° (NNE) 2,335 ? 31.8°
Maximum altitude 15:30:45 19° 64° (ENE) 1,735 ? 30.9°
Drops below altitude 10° 15:34:15 10° 109° (ESE) 2,191 ? 30.0°
Sets 15:37:07 0° 127° (SE) 3,047 ? 29.3°
